Location: Newark
(40.7360°N, 74.1730°W)
Time: 19:37:48
(UTC-04:00)

Amateur Radio Satellites - All Passes

Search period start: 31 October 2014 19:07
Search period end: 01 November 2014 19:07
Location: Newark, 40.7360°N, 74.1730°W

Satellite Date Start Highest point End Downlink Frequencies (MHz)
Time Altitude Azimuth
SO-67 31 Oct 19:23:41 19:27:05 70° 259° (W) 19:30:32 435.3500 MHz FM
RS-15 31 Oct 19:42:02 19:50:07 24° 102° (ESE) 19:58:05 29.354 - 29.394 USB, Beacon 29.352 USB
AO-40 31 Oct 19:42:24 22:21:22 23° 117° (ESE) 23:36:29 Beacon 2401.320
OPAL 31 Oct 19:43:23 19:46:59 21° 298° (WNW) 19:50:34 ?
STRAND 1 31 Oct 20:00:09 20:05:20 87° 285° (WNW) 20:10:28 ?
HO-68 31 Oct 20:03:46 20:10:09 37° 63° (ENE) 20:16:35 435.675 MHz FM
KITSAT 1 31 Oct 20:31:05 20:39:11 80° 242° (WSW) 20:47:14 435.175 FM
SO-50 31 Oct 20:44:59 20:49:40 49° 243° (WSW) 20:54:21 436.795 FM
UKube-1 31 Oct 20:49:01 20:52:09 20° 65° (ENE) 20:55:18 145.840 MHz, 145.915 MHz
Oscar 10/S400 31 Oct 20:57:44 21:38:45 50° 204° (SSW) 05:35:05 145.825 - 145.975 CW/USB, Beacon 145.810 USB
ZACube-1 31 Oct 21:00:52 21:01:52 11° 62° (ENE) 21:02:52 437.345 MHz
Oscar 11 31 Oct 21:22:42 21:26:43 40° 72° (ENE) 21:30:45 145.825 FM, Beacon 2401.500 USB
UOSAT-12 31 Oct 21:27:17 21:31:52 48° 53° (NE) 21:36:22 437.025 FM, 437.400 FM
FUNcube-1 31 Oct 21:40:28 21:44:17 28° 69° (ENE) 21:48:04 145.950 - 145.970 MHz USB
STRAND 1 31 Oct 21:42:04 21:43:42 12° 302° (WNW) 21:45:21 ?
MaSat-1 31 Oct 21:48:52 21:52:30 37° 111° (ESE) 21:55:49 437.345 MHz
RS-15 31 Oct 21:50:02 22:01:04 84° 302° (WNW) 22:12:05 29.354 - 29.394 USB, Beacon 29.352 USB
HO-68 31 Oct 21:50:57 21:57:42 44° 261° (W) 22:04:31 435.675 MHz FM
UKube-1 31 Oct 22:24:01 22:28:04 38° 262° (W) 22:32:09 145.840 MHz, 145.915 MHz
KITSAT 1 31 Oct 22:29:13 22:33:17 15° 260° (W) 22:37:22 435.175 FM
ZACube-1 31 Oct 22:33:05 22:37:38 80° 258° (WSW) 22:42:06 437.345 MHz
Oscar 11 31 Oct 23:00:11 23:03:03 17° 267° (W) 23:05:57 145.825 FM, Beacon 2401.500 USB
UOSAT-12 31 Oct 23:08:16 23:11:39 20° 250° (WSW) 23:14:59 437.025 FM, 437.400 FM
FUNcube-1 31 Oct 23:16:43 23:20:35 27° 264° (W) 23:24:24 145.950 - 145.970 MHz USB
MaSat-1 31 Oct 23:25:33 23:27:57 16° 304° (NW) 23:30:13 437.345 MHz
RS-15 01 Nov 00:06:06 00:15:15 29° 330° (NNW) 00:24:31 29.354 - 29.394 USB, Beacon 29.352 USB
Oscar 16 01 Nov 01:40:59 01:45:10 25° 95° (E) 01:49:19 437.025 USB, Beacon 2401.1428
Sapphire 01 Nov 01:53:18 01:58:12 37° 111° (ESE) 02:03:10 437.095 MHz 1200 baud AX-25 AFSK
AO-Echo 01 Nov 02:11:53 02:16:21 27° 94° (E) 02:20:45 ?
JAS-1B 01 Nov 02:14:24 02:21:31 55° 101° (E) 02:29:58 435.800 - 435.900 CW/SSB
PCSat 01 Nov 02:14:24 02:19:43 62° 115° (ESE) 02:25:05 145.825 MHz
Uribyol 2 01 Nov 02:15:02 02:19:01 22° 94° (E) 02:22:57 436.500 FM
ITAMSAT 1 01 Nov 02:22:57 02:27:10 24° 94° (E) 02:31:21 435.822 SSB
RS-15 01 Nov 02:25:19 02:32:46 20° 5° (N) 02:40:20 29.354 - 29.394 USB, Beacon 29.352 USB
Oscar 19 01 Nov 02:32:22 02:37:30 77° 103° (ESE) 02:42:37 437.125 CW, 437.150 USB
AO-27 01 Nov 03:10:02 03:15:16 70° 102° (ESE) 03:20:26 436.795 MHz FM
Oscar 16 01 Nov 03:19:53 03:24:36 38° 291° (WNW) 03:29:18 437.025 USB, Beacon 2401.1428
Gurwin Techsat 1B 01 Nov 03:28:36 03:33:50 55° 100° (E) 03:39:01 435.225 FM
TMSAT-1 01 Nov 03:34:40 03:39:47 47° 99° (E) 03:44:51 436.925 FM
Sapphire 01 Nov 03:36:49 03:41:39 33° 309° (NW) 03:46:31 437.095 MHz 1200 baud AX-25 AFSK
OPAL 01 Nov 03:43:38 03:45:13 11° 56° (ENE) 03:46:47 ?
AO-Echo 01 Nov 03:50:16 03:55:10 38° 291° (WNW) 04:00:00 ?
Uribyol 2 01 Nov 03:53:44 03:58:40 45° 290° (WNW) 04:03:34 436.500 FM
AO-7 01 Nov 03:59:01 04:05:10 22° 93° (E) 04:11:17 29.400 - 29.500 MHz
PCSat 01 Nov 03:59:26 04:03:34 22° 314° (NW) 04:07:44 145.825 MHz
ITAMSAT 1 01 Nov 04:01:55 04:06:47 40° 291° (WNW) 04:11:36 435.822 SSB
JAS-1B 01 Nov 04:05:45 04:11:51 32° 295° (WNW) 04:18:53 435.800 - 435.900 CW/SSB
Uosat F 01 Nov 04:06:01 04:07:38 11° 89° (E) 04:09:14 435.120 FM
Oscar 19 01 Nov 04:13:39 04:16:11 14° 300° (WNW) 04:18:43 437.125 CW, 437.150 USB
RS-15 01 Nov 04:39:28 04:49:37 38° 39° (NE) 05:00:04 29.354 - 29.394 USB, Beacon 29.352 USB
PANSAT 01 Nov 04:49:12 04:50:48 12° 174° (S) 04:52:24 not established
AO-27 01 Nov 04:51:09 04:54:10 16° 299° (WNW) 04:57:10 436.795 MHz FM
Gurwin Techsat 1B 01 Nov 05:09:37 05:13:21 20° 297° (WNW) 05:17:04 435.225 FM
TMSAT-1 01 Nov 05:15:18 05:19:22 23° 296° (WNW) 05:23:25 436.925 FM
OPAL 01 Nov 05:18:12 05:23:19 86° 73° (ENE) 05:28:24 ?
Saudisat 1A 01 Nov 05:18:32 05:22:29 34° 115° (ESE) 05:26:29 436.775 MHz
STRAND 1 01 Nov 05:39:05 05:42:16 17° 62° (ENE) 05:45:28 ?
Uosat F 01 Nov 05:41:55 05:46:59 79° 286° (WNW) 05:52:00 435.120 FM
JAS-2 01 Nov 05:45:55 05:53:19 43° 96° (E) 06:00:24 435.800 - 435.900 CW/SSB, 435.910 FM
AO-7 01 Nov 05:50:21 05:58:41 77° 291° (WNW) 06:07:00 29.400 - 29.500 MHz
Hamsat 01 Nov 06:26:10 06:30:15 46° 99° (E) 06:34:21 145.90 MHz
PANSAT 01 Nov 06:28:37 06:30:11 12° 187° (S) 06:31:45 not established
RS-15 01 Nov 06:51:47 07:02:56 74° 243° (WSW) 07:14:34 29.354 - 29.394 USB, Beacon 29.352 USB
Saudisat 1A 01 Nov 06:58:22 07:02:05 27° 313° (NW) 07:05:51 436.775 MHz
OPAL 01 Nov 07:01:46 07:02:47 11° 269° (W) 07:03:47 ?
STRAND 1 01 Nov 07:15:50 07:20:55 63° 258° (WSW) 07:26:03 ?
JAS-2 01 Nov 07:30:57 07:38:13 43° 294° (WNW) 07:45:17 435.800 - 435.900 CW/SSB, 435.910 FM
MaSat-1 01 Nov 07:33:21 07:35:47 52° 63° (ENE) 07:38:05 437.345 MHz
AO-7 01 Nov 07:45:02 07:50:09 18° 311° (NW) 07:55:18 29.400 - 29.500 MHz
Hamsat 01 Nov 08:03:20 08:05:49 15° 295° (WNW) 08:08:18 145.90 MHz
SO-67 01 Nov 08:19:54 08:23:17 55° 284° (WNW) 08:26:39 435.3500 MHz FM
RS-15 01 Nov 09:07:30 09:13:20 16° 263° (W) 09:19:18 29.354 - 29.394 USB, Beacon 29.352 USB
KITSAT 1 01 Nov 09:08:36 09:12:18 14° 99° (E) 09:16:00 435.175 FM
HO-68 01 Nov 09:18:39 09:25:15 38° 98° (E) 09:31:47 435.675 MHz FM
ISS 01 Nov 09:51:34 09:54:48 52° 139° (SE) 09:58:03 145.800 FM
UKube-1 01 Nov 10:12:15 10:16:16 35° 98° (E) 10:20:14 145.840 MHz, 145.915 MHz
ZACube-1 01 Nov 10:23:37 10:26:37 19° 93° (E) 10:29:34 437.345 MHz
Sapphire 01 Nov 10:41:19 10:46:07 30° 51° (NE) 10:50:52 437.095 MHz 1200 baud AX-25 AFSK
Oscar 11 01 Nov 10:46:12 10:50:33 86° 104° (ESE) 10:54:51 145.825 FM, Beacon 2401.500 USB
KITSAT 1 01 Nov 10:58:18 11:06:20 77° 117° (ESE) 11:14:25 435.175 FM
SO-50 01 Nov 10:59:20 11:03:44 59° 119° (ESE) 11:08:17 436.795 FM
PCSat 01 Nov 11:02:39 11:07:54 47° 55° (NE) 11:13:06 145.825 MHz
FUNcube-1 01 Nov 11:05:23 11:09:31 57° 100° (E) 11:13:35 145.950 - 145.970 MHz USB
HO-68 01 Nov 11:06:17 11:12:57 42° 295° (WNW) 11:19:35 435.675 MHz FM
ISS 01 Nov 11:28:51 11:31:40 25° 337° (NNW) 11:34:29 145.800 FM
UOSAT-12 01 Nov 11:40:09 11:42:44 15° 108° (ESE) 11:45:20 437.025 FM, 437.400 FM
UKube-1 01 Nov 11:48:56 11:52:13 21° 294° (WNW) 11:55:29 145.840 MHz, 145.915 MHz
ZACube-1 01 Nov 11:59:20 12:03:07 33° 289° (WNW) 12:06:50 437.345 MHz
Oscar 19 01 Nov 12:12:56 12:15:27 14° 60° (ENE) 12:17:57 437.125 CW, 437.150 USB
Sapphire 01 Nov 12:24:34 12:29:37 40° 249° (WSW) 12:34:39 437.095 MHz 1200 baud AX-25 AFSK
SO-50 01 Nov 12:41:24 12:44:41 19° 318° (NW) 12:48:03 436.795 FM
FUNcube-1 01 Nov 12:43:38 12:45:24 12° 297° (WNW) 12:47:09 145.950 - 145.970 MHz USB
PCSat 01 Nov 12:46:41 12:50:59 24° 253° (WSW) 12:55:16 145.825 MHz
AO-27 01 Nov 12:51:47 12:54:18 14° 59° (ENE) 12:56:49 436.795 MHz FM
KITSAT 1 01 Nov 12:55:45 13:02:33 29° 319° (NW) 13:09:22 435.175 FM
Oscar 16 01 Nov 12:57:35 13:02:15 36° 69° (ENE) 13:06:54 437.025 USB, Beacon 2401.1428
JAS-1B 01 Nov 13:01:44 13:06:56 38° 67° (ENE) 13:12:11 435.800 - 435.900 CW/SSB
ISS 01 Nov 13:07:38 13:09:15 13° 357° (N) 13:10:52 145.800 FM
Gurwin Techsat 1B 01 Nov 13:13:56 13:15:35 11° 58° (ENE) 13:17:15 435.225 FM
UOSAT-12 01 Nov 13:17:44 13:22:20 63° 305° (NW) 13:27:02 437.025 FM, 437.400 FM
AO-Echo 01 Nov 13:24:28 13:28:54 32° 68° (ENE) 13:33:28 ?
Uribyol 2 01 Nov 13:32:27 13:37:04 33° 68° (ENE) 13:41:42 436.500 FM
ITAMSAT 1 01 Nov 13:40:32 13:45:16 37° 68° (ENE) 13:50:02 435.822 SSB
Saudisat 1A 01 Nov 13:45:15 13:49:06 28° 48° (NE) 13:52:55 436.775 MHz
Oscar 19 01 Nov 13:48:59 13:54:07 78° 257° (WSW) 13:59:16 437.125 CW, 437.150 USB
AO-27 01 Nov 14:27:53 14:33:06 81° 256° (WSW) 14:38:22 436.795 MHz FM
Oscar 16 01 Nov 14:37:18 14:41:37 27° 265° (W) 14:45:58 437.025 USB, Beacon 2401.1428
ISS 01 Nov 14:44:32 14:46:57 18° 17° (NNE) 14:49:22 145.800 FM
Gurwin Techsat 1B 01 Nov 14:49:23 14:54:42 84° 75° (ENE) 15:00:03 435.225 FM
JAS-1B 01 Nov 14:53:02 14:57:47 26° 265° (W) 15:02:32 435.800 - 435.900 CW/SSB
TMSAT-1 01 Nov 14:55:04 15:00:20 71° 74° (ENE) 15:05:38 436.925 FM
AO-7 01 Nov 14:57:47 15:04:48 32° 58° (ENE) 15:11:50 29.400 - 29.500 MHz
KITSAT 1 01 Nov 14:59:05 15:01:17 11° 347° (NNW) 15:03:30 435.175 FM
UOSAT-12 01 Nov 15:01:52 15:03:26 11° 325° (NW) 15:05:01 437.025 FM, 437.400 FM
AO-Echo 01 Nov 15:03:18 15:07:38 29° 265° (W) 15:12:06 ?
Uribyol 2 01 Nov 15:11:56 15:16:30 30° 264° (W) 15:21:06 436.500 FM
Uosat F 01 Nov 15:18:21 15:21:35 18° 62° (ENE) 15:24:50 435.120 FM
ITAMSAT 1 01 Nov 15:20:25 15:24:48 27° 265° (W) 15:29:14 435.822 SSB
Saudisat 1A 01 Nov 15:24:42 15:28:40 33° 245° (WSW) 15:32:36 436.775 MHz
JAS-2 01 Nov 15:59:38 16:03:51 18° 55° (NE) 16:08:21 435.800 - 435.900 CW/SSB, 435.910 FM
ISS 01 Nov 16:20:44 16:24:05 79° 35° (NE) 16:27:25 145.800 FM
Gurwin Techsat 1B 01 Nov 16:33:39 16:35:18 11° 272° (W) 16:36:57 435.225 FM
TMSAT-1 01 Nov 16:38:03 16:40:46 14° 270° (W) 16:43:28 436.925 FM
AO-7 01 Nov 16:48:59 16:57:06 60° 257° (WSW) 17:05:18 29.400 - 29.500 MHz
Uosat F 01 Nov 16:54:56 16:59:53 58° 259° (W) 17:04:53 435.120 FM
KITSAT 1 01 Nov 16:57:48 17:01:14 13° 19° (NNE) 17:04:40 435.175 FM
Hamsat 01 Nov 17:19:21 17:23:03 32° 71° (ENE) 17:26:46 145.90 MHz
OPAL 01 Nov 17:29:13 17:32:59 22° 96° (E) 17:36:45 ?
JAS-2 01 Nov 17:41:26 17:47:45 88° 256° (WSW) 17:54:59 435.800 - 435.900 CW/SSB, 435.910 FM
SO-50 01 Nov 17:53:33 17:54:05 10° 33° (NNE) 17:54:37 436.795 FM
ISS 01 Nov 17:59:09 18:00:19 11° 231° (SW) 18:01:29 145.800 FM
SO-67 01 Nov 18:51:54 18:55:07 39° 74° (ENE) 18:58:22 435.3500 MHz FM
KITSAT 1 01 Nov 18:52:04 18:59:27 37° 46° (NE) 19:06:48 435.175 FM
Hamsat 01 Nov 18:55:56 18:59:03 20° 266° (W) 19:02:10 145.90 MHz
